Wetbulb
45.61 42.70 40.59 43.74 44.25 44.15 41.79 40.29 39.38 42.20 44.47 41.71 41.55 42.07 43.89 45.77 46.00 45.81 46.47 47.31 48.54 49.29 50.45 50.98 51.04 51.16 51.03 51.28 51.02 50.91 50.93 50.89 52.53 53.22 53.54 54.41 54.01 54.66 54.89 55.51 54.06 53.30 51.47 49.40
41.59 39.51 44.53 45.06 42.40 40.92 40.78 39.10 39.04 42.43 43.69 39.84 41.35 40.63 43.43 45.14 45.61 46.82 47.18 47.38 47.90 48.38 49.02 49.73 49.22 49.16 48.71 48.85 49.35 49.15 49.11 49.67 50.11 52.17 53.16 53.58 53.13 53.42 53.48 53.89 52.76 52.48 50.67 48.99
41.15 43.69 43.70 41.16 41.28 39.41 40.54 38.23 39.50 39.55 41.76 41.67 39.23 40.20 41.27 45.69 46.59 46.93 46.39 47.30 46.69 46.61 46.93 47.57 47.26 46.99 46.78 45.72 45.90 46.02 47.10 48.04 48.49 50.28 51.44 51.41 49.52 50.58 49.82 50.19 49.95 49.59 49.54 48.25
40.97 42.71 40.14 39.73 38.97 41.02 37.36 42.99 40.19 38.28 36.75 34.96 39.54 33.72 41.57 44.34 44.73 45.78 46.00 46.56 46.77 47.27 46.86 45.67 44.28 44.09 43.30 43.05 44.75 44.99 45.37 46.01 46.22 48.10 48.39 48.30 46.95 46.33 47.26 47.30 47.94 47.83 47.48 47.27
40.68 38.96 37.77 37.83 39.62 40.52 39.60 39.85 37.88 36.74 36.35 34.86 37.10 33.52 41.26 41.02 40.74 43.84 45.25 45.64 45.25 45.64 44.51 42.82 42.60 42.56 42.68 42.37 42.56 43.51 44.30 44.23 45.06 45.60 46.76 46.29 46.18 47.75 48.12 46.53 46.49 45.93 45.50 45.87
41.07 40.52 40.62 41.33 39.97 40.10 39.95 39.01 37.89 36.55 36.08 31.11 38.34 36.14 38.83 41.03 41.21 43.01 44.26 42.67 42.88 42.36 42.29 41.98 42.46 42.49 41.58 42.54 41.89 41.96 42.68 42.25 43.26 43.82 44.49 44.39 44.51 45.25 44.95 44.37 44.46 44.49 43.99 43.61
38.89 38.33 39.95 40.04 37.83 38.42 38.41 36.78 33.15 32.34 32.53 32.05 35.24 34.01 37.51 42.68 42.14 42.04 40.65 40.10 40.45 41.13 40.86 40.21 39.61 39.96 40.33 40.26 40.68 40.49 40.75 39.89 41.18 42.04 42.56 42.84 43.11 43.67 43.73 43.72 43.49 43.61 42.71 41.80
36.18 35.37 38.01 40.20 40.71 41.26 37.10 37.79 34.30 26.60 28.97 33.01 36.03 32.10 38.93 45.19 42.23 41.34 40.21 39.75 39.55 39.12 39.78 39.44 39.39 39.27 39.49 39.76 40.11 40.36 39.66 39.12 39.72 39.71 39.68 40.89 41.53 42.00 42.70 42.92 43.03 43.26 42.80 42.78
37.07 36.52 38.73 37.64 39.05 40.48 36.57 33.67 39.46 33.19 33.77 30.03 34.18 38.42 42.72 43.11 39.57 39.83 39.19 39.00 37.55 37.54 37.96 38.02 38.59 38.48 38.75 38.91 38.80 39.33 38.88 38.65 39.02 39.49 39.67 39.37 39.61 39.70 40.00 40.98 41.49 41.98 42.51 42.02
37.51 32.54 40.10 39.83 38.50 38.47 37.31 40.57 33.16 32.31 24.72 24.36 30.29 32.98 35.35 37.17 36.68 37.47 37.10 36.10 35.51 36.03 36.81 37.66 38.09 37.36 37.59 38.41 38.85 38.59 38.94 37.47 37.41 38.13 38.82 38.85 38.85 38.79 39.03 39.21 38.65 39.31 40.24 40.33
40.27 36.40 36.70 38.89 36.45 36.60 35.94 32.97 33.60 33.21 31.21 26.61 25.57 31.37 39.96 37.08 36.52 35.36 34.04 33.12 33.34 33.92 35.11 36.37 37.23 37.38 36.88 37.34 37.35 37.03 37.19 36.64 36.01 36.17 37.22 37.74 38.11 38.15 37.90 37.60 37.81 37.76 38.42 38.38
41.44 36.76 31.85 34.58 41.11 39.99 37.47 36.16 36.64 30.07 28.45 31.19 30.21 30.95 38.20 36.28 35.51 33.59 31.40 31.71 32.72 33.23 33.67 35.02 36.55 35.85 34.79 34.79 35.56 35.74 35.51 35.50 35.11 35.30 35.88 35.74 36.56 36.18 36.08 36.77 37.00 37.38 36.52 37.14
39.75 34.27 29.99 31.46 35.85 36.46 35.27 37.32 36.56 36.44 34.33 29.67 27.39 29.94 35.92 33.42 32.22 31.26 30.07 30.50 31.11 31.97 31.87 32.94 35.29 35.15 33.71 33.48 33.62 33.97 33.96 33.77 33.89 33.75 33.94 34.29 34.17 34.05 33.59 33.64 35.06 35.93 35.80 35.72
39.79 34.71 31.29 25.97 30.77 34.69 32.43 34.58 35.21 33.08 29.17 29.20 29.75 31.79 35.57 37.91 36.51 31.12 30.14 30.49 30.74 30.07 30.48 31.28 32.11 33.78 32.70 32.11 32.54 32.26 32.36 32.92 32.09 32.13 32.54 32.45 32.52 32.80 32.56 32.76 33.31 33.67 34.27 34.20
36.94 30.69 32.02 32.47 33.69 33.47 32.84 31.19 31.50 29.46 29.82 24.78 27.56 28.01 32.25 35.12 33.23 29.97 29.54 30.50 29.83 28.83 29.50 30.31 30.65 32.43 32.34 31.32 31.33 31.08 31.06 31.10 30.61 29.71 30.50 30.50 31.72 31.71 30.79 30.61 31.63 32.48 33.06 33.00
35.03 28.30 30.07 27.65 31.07 30.81 28.51 29.84 30.23 29.79 29.70 28.64 28.67 28.23 34.63 29.50 29.29 28.59 28.73 28.90 29.67 29.20 29.47 29.96 30.73 31.49 31.11 30.39 30.25 30.03 30.31 30.25 29.80 27.95 28.39 28.84 29.73 29.12 27.68 28.51 29.67 29.53 30.14 31.58
29.46 27.75 25.34 21.07 27.35 26.39 21.52 25.37 27.59 28.92 31.00 29.68 24.84 28.44 26.30 24.34 26.67 27.99 28.62 28.95 29.13 29.49 29.51 29.77 30.29 31.15 31.23 30.48 29.98 29.37 29.56 29.76 28.19 26.77 27.56 27.39 27.17 26.02 25.38 26.62 28.94 27.93 28.31 29.39
26.39 25.94 25.92 20.96 21.75 12.87 26.13 31.32 29.54 27.24 27.99 25.69 24.38 24.27 25.82 25.71 27.79 29.44 30.95 29.94 29.52 30.25 29.90 30.39 31.02 31.55 32.08 31.47 30.16 29.99 28.94 28.09 27.04 26.21 26.29 26.50 25.07 23.68 23.84 24.35 26.02 25.66 27.38 27.58
29.16 25.64 20.96 16.95 16.91 21.71 24.53 27.59 27.04 24.68 24.54 26.94 23.63 24.19 25.96 27.07 27.73 27.92 31.03 31.45 30.81 31.56 31.71 31.52 31.90 31.57 30.96 29.63 29.47 28.11 27.19 26.92 26.15 24.79 24.91 25.20 23.59 21.14 21.25 20.35 22.21 23.58 24.76 26.39
25.61 26.57 20.39 16.69 12.31 9.54 22.33 23.94 26.32 25.98 17.73 25.75 23.97 23.87 24.42 25.55 19.32 24.70 30.18 30.81 30.84 31.78 32.22 31.10 30.91 30.12 28.62 29.06 28.25 25.81 25.09 24.78 24.07 24.35 24.18 24.00 22.43 19.64 18.77 20.14 19.85 21.59 22.75 23.54
16.61 17.42 16.59 17.21 15.01 18.89 24.93 23.99 26.92 14.56 18.01 26.56 25.93 25.18 24.77 22.81 25.99 29.15 30.29 30.35 31.37 31.35 31.21 30.73 29.24 27.25 27.19 27.19 26.05 23.21 23.36 22.30 23.89 23.78 22.88 21.64 20.79 18.68 18.51 18.45 19.18 18.57 18.88 20.32
17.11 15.24 12.64 10.29 10.20 9.02 25.43 23.01 18.88 25.13 27.77 27.24 27.03 27.14 26.00 27.35 28.14 28.43 29.28 29.51 30.21 30.25 29.00 28.09 26.36 25.93 26.53 25.97 23.79 21.45 20.56 22.59 22.24 21.05 19.32 18.49 17.53 17.29 17.13 15.32 15.50 15.80 16.61 17.26
14.57 19.97 17.31 16.02 17.93 26.27 26.71 26.23 28.67 29.54 27.35 28.15 27.72 28.50 28.01 26.68 26.86 28.10 28.11 28.57 27.96 26.85 25.67 25.20 23.08 21.73 22.19 21.66 20.77 18.39 19.46 19.87 18.12 16.00 14.12 14.05 14.40 14.27 14.00 13.05 13.02 13.86 14.79 15.56
22.34 25.46 18.98 19.66 23.25 25.11 27.22 28.95 29.71 29.97 28.97 29.94 29.38 28.35 27.86 25.79 26.42 25.66 25.89 24.68 23.20 22.67 21.30 20.95 18.68 16.67 15.90 17.59 17.18 15.96 15.40 14.76 12.08 10.48 10.54 11.21 10.50 11.03 11.33 12.11 12.57 12.42 12.82 14.03
23.52 22.18 19.91 20.00 23.65 25.57 26.93 28.35 29.20 29.57 29.87 28.23 27.66 25.95 25.09 23.19 22.56 21.90 20.64 19.32 18.77 17.82 17.02 16.17 14.07 12.61 12.08 12.75 11.42 10.82 10.00 8.64 6.75 6.43 6.75 7.06 7.65 7.34 7.59 8.84 9.63 10.38 12.42 14.15
25.19 21.91 19.35 18.10 25.68 25.02 25.67 29.02 30.15 27.70 27.17 24.29 21.83 20.97 19.85 18.28 17.37 16.90 15.41 15.61 14.23 12.97 12.21 10.36 9.23 8.36 7.48 6.59 5.46 5.41 5.25 4.27 2.65 2.71 3.37 4.07 4.20 4.46 5.02 5.14 5.65 11.03 13.22 15.43
MSLP
1016.60 1016.27 1015.32 1014.49 1014.32 1013.70 1013.87 1013.49 1012.91 1012.50 1012.62 1012.61 1011.21 1010.45 1010.12 1009.48 1008.46 1007.55 1007.00 1007.24 1007.08 1007.15 1007.31 1007.40 1007.70 1007.90 1007.96 1007.61 1007.57 1007.81 1008.08 1008.79 1009.35 1009.66 1010.01 1010.60 1010.88 1011.78 1012.01 1012.06 1012.52 1013.04 1013.70 1014.42
1017.06 1015.73 1014.88 1014.74 1014.94 1014.78 1014.27 1013.77 1013.04 1012.40 1012.32 1012.70 1011.23 1010.20 1009.26 1008.45 1007.74 1006.87 1006.75 1006.92 1007.42 1007.59 1007.46 1007.78 1008.30 1008.59 1008.61 1008.34 1008.06 1007.85 1008.13 1008.60 1008.88 1009.14 1009.43 1009.73 1010.27 1010.98 1011.84 1012.40 1012.80 1013.06 1013.48 1013.97
1015.66 1014.87 1015.13 1015.45 1015.36 1014.83 1014.35 1014.08 1012.90 1012.73 1012.64 1012.25 1011.63 1009.69 1008.85 1007.67 1006.91 1006.75 1006.97 1007.03 1007.95 1008.52 1008.80 1009.15 1009.58 1009.71 1009.68 1009.38 1009.19 1008.66 1008.34 1008.58 1009.07 1009.85 1010.05 1010.34 1010.76 1010.60 1011.20 1012.19 1013.03 1013.75 1014.20 1014.34
1016.05 1015.65 1015.60 1015.67 1015.33 1015.16 1014.51 1013.94 1013.99 1013.74 1013.58 1012.27 1012.28 1008.98 1008.50 1007.38 1006.63 1006.78 1006.67 1007.47 1008.36 1009.31 1010.03 1010.33 1010.55 1010.50 1010.67 1010.98 1010.79 1009.63 1009.68 1009.11 1009.28 1009.78 1010.47 1010.94 1010.83 1010.60 1010.62 1010.97 1012.03 1013.13 1014.11 1014.45
1015.19 1015.46 1015.74 1015.78 1015.31 1015.42 1014.71 1014.60 1014.58 1014.35 1013.83 1013.14 1012.02 1011.18 1007.87 1007.35 1006.96 1007.30 1007.85 1008.54 1009.97 1010.81 1011.55 1012.14 1012.49 1013.04 1012.88 1011.95 1010.03 1010.65 1010.64 1010.53 1010.54 1010.38 1010.51 1011.04 1011.16 1010.99 1010.88 1011.23 1011.28 1012.17 1012.89 1013.63
1015.45 1015.91 1015.63 1014.87 1014.99 1015.37 1015.47 1015.25 1014.91 1014.65 1014.10 1012.28 1010.94 1010.61 1008.25 1007.75 1007.71 1008.10 1009.46 1010.84 1011.71 1012.66 1013.41 1013.41 1013.17 1012.81 1012.27 1012.30 1012.47 1012.13 1011.58 1011.53 1011.57 1011.35 1011.30 1011.27 1011.28 1011.27 1011.52 1011.78 1011.80 1011.67 1012.02 1012.45
1015.03 1015.17 1015.16 1015.18 1015.14 1015.31 1015.29 1015.43 1014.54 1013.82 1013.59 1011.44 1011.27 1010.83 1009.47 1008.76 1009.28 1010.19 1010.94 1012.36 1013.23 1013.72 1013.56 1013.58 1013.51 1013.56 1013.15 1013.36 1013.64 1013.41 1013.09 1012.72 1012.36 1012.00 1011.96 1011.75 1011.51 1011.49 1011.39 1011.53 1011.77 1011.78 1011.99 1012.19
1014.78 1013.73 1014.63 1014.79 1014.30 1013.93 1014.56 1014.41 1014.25 1013.76 1013.04 1011.92 1011.92 1009.21 1008.37 1008.91 1010.40 1011.23 1011.82 1012.55 1013.40 1014.16 1014.28 1014.67 1014.68 1014.46 1014.73 1014.92 1014.52 1014.00 1013.83 1013.87 1013.55 1012.98 1012.52 1012.30 1011.78 1011.84 1011.69 1011.35 1011.32 1011.26 1011.55 1011.65
1015.03 1013.66 1014.49 1014.60 1014.29 1014.44 1014.56 1014.52 1014.04 1013.74 1013.63 1012.79 1010.73 1009.23 1009.21 1009.39 1011.21 1012.58 1013.69 1014.28 1014.98 1015.69 1015.38 1015.14 1015.47 1015.55 1015.43 1015.39 1015.14 1014.91 1014.42 1014.22 1014.12 1013.92 1012.99 1012.46 1012.07 1012.26 1012.10 1011.87 1011.52 1011.16 1011.19 1011.48
1016.73 1016.05 1015.13 1014.84 1014.83 1014.59 1014.63 1014.32 1014.40 1014.56 1013.65 1012.29 1010.60 1009.51 1009.06 1010.59 1012.27 1013.86 1014.62 1015.34 1015.84 1015.71 1015.97 1016.11 1016.24 1016.44 1016.38 1016.20 1015.70 1015.66 1015.44 1014.88 1014.43 1014.39 1013.56 1013.01 1012.97 1012.73 1012.52 1012.01 1011.80 1011.45 1011.20 1011.16
1016.99 1017.59 1015.45 1015.54 1014.80 1014.21 1014.85 1014.64 1014.75 1014.55 1013.94 1012.77 1011.26 1009.67 1009.27 1010.93 1012.56 1014.46 1015.48 1015.94 1016.49 1016.39 1016.44 1016.57 1016.66 1016.78 1016.92 1016.86 1016.34 1015.70 1015.39 1015.31 1014.84 1013.98 1013.57 1013.59 1013.39 1013.19 1012.91 1012.62 1011.89 1011.52 1011.18 1011.19
1017.02 1016.85 1016.20 1014.55 1014.18 1014.43 1014.65 1014.64 1014.40 1014.05 1013.53 1012.99 1012.31 1011.00 1011.98 1013.07 1014.58 1015.76 1016.99 1017.28 1017.50 1017.46 1017.28 1017.15 1017.01 1016.92 1016.88 1016.81 1016.75 1016.46 1015.97 1015.61 1015.47 1015.35 1014.71 1014.18 1013.86 1013.40 1012.89 1012.74 1012.32 1011.69 1011.07 1010.91
1018.00 1017.66 1016.54 1015.56 1014.75 1015.31 1015.40 1014.91 1014.67 1014.44 1014.24 1013.33 1012.74 1012.47 1013.55 1014.60 1015.51 1016.18 1016.93 1017.59 1017.98 1018.11 1017.71 1017.23 1017.20 1017.22 1016.92 1016.84 1016.81 1016.71 1016.49 1016.36 1015.96 1015.21 1015.06 1014.59 1014.13 1013.59 1013.22 1012.91 1012.67 1012.21 1011.62 1011.08
1018.94 1018.35 1017.90 1016.90 1015.76 1016.00 1016.34 1016.14 1015.97 1015.61 1014.69 1014.00 1013.72 1013.39 1013.94 1014.00 1014.69 1016.05 1017.03 1017.28 1017.52 1018.00 1018.15 1017.52 1017.29 1017.15 1017.12 1017.04 1016.99 1016.80 1016.71 1016.83 1016.61 1015.97 1015.09 1014.68 1014.64 1013.95 1013.58 1013.11 1012.88 1012.61 1012.18 1011.75
1019.47 1018.51 1018.05 1017.14 1016.76 1016.59 1016.32 1016.27 1015.85 1015.47 1015.39 1015.22 1014.11 1014.17 1013.83 1014.27 1015.03 1016.01 1016.73 1017.02 1017.43 1017.62 1017.63 1017.20 1017.35 1017.28 1017.14 1017.11 1017.02 1017.02 1016.79 1016.78 1016.54 1016.12 1015.57 1015.21 1015.06 1014.85 1014.34 1013.84 1013.09 1012.86 1011.96 1011.15
1019.82 1018.94 1018.59 1017.47 1017.21 1016.94 1016.56 1016.23 1015.69 1015.40 1015.23 1014.72 1014.52 1013.95 1014.17 1015.62 1015.96 1016.44 1016.59 1016.74 1016.92 1016.96 1016.74 1016.96 1017.07 1017.14 1017.33 1017.41 1017.30 1017.15 1016.89 1016.92 1016.83 1016.33 1015.75 1015.28 1014.78 1014.96 1014.48 1013.67 1013.20 1012.69 1012.03 1011.33
1020.55 1019.93 1019.41 1017.76 1017.82 1017.19 1015.90 1014.90 1015.10 1014.73 1014.38 1014.42 1014.55 1014.83 1015.89 1016.51 1016.50 1016.50 1016.62 1016.59 1016.40 1016.32 1016.42 1016.57 1016.73 1016.81 1017.02 1017.15 1017.25 1017.16 1017.07 1016.80 1016.33 1015.85 1015.18 1015.08 1014.97 1014.82 1014.25 1013.35 1012.95 1012.31 1011.74 1011.10
1020.42 1020.24 1019.97 1018.20 1018.38 1016.16 1014.28 1014.72 1014.92 1014.78 1014.93 1015.51 1015.98 1016.55 1016.88 1016.93 1016.75 1016.64 1016.66 1016.34 1016.11 1016.06 1016.19 1016.26 1016.32 1016.32 1016.50 1016.71 1016.76 1016.58 1016.51 1016.41 1016.25 1015.99 1015.77 1015.46 1015.01 1014.42 1013.64 1013.27 1012.69 1011.87 1011.36 1010.77
1020.27 1020.24 1019.61 1018.88 1017.57 1015.55 1015.19 1015.43 1015.27 1015.26 1015.03 1016.28 1016.70 1017.15 1017.24 1017.14 1016.99 1016.13 1016.13 1016.08 1015.91 1015.85 1015.86 1016.06 1016.14 1016.08 1016.10 1016.07 1016.09 1016.12 1016.04 1015.87 1015.61 1015.28 1015.03 1014.75 1014.61 1014.30 1013.81 1013.09 1012.27 1011.64 1011.04 1010.23
1020.00 1020.36 1020.32 1019.52 1018.19 1016.22 1015.51 1016.09 1016.21 1016.16 1016.05 1016.84 1017.27 1017.40 1017.35 1017.26 1016.65 1015.66 1015.81 1015.90 1015.81 1015.76 1015.70 1015.79 1015.92 1015.89 1015.88 1015.62 1015.73 1015.66 1015.30 1015.09 1014.74 1014.51 1014.25 1014.11 1014.07 1013.82 1013.36 1012.83 1012.12 1011.43 1010.85 1009.79
1020.39 1020.23 1019.87 1019.01 1018.08 1016.72 1016.26 1016.56 1016.75 1016.71 1016.67 1016.70 1017.06 1017.01 1016.97 1016.83 1016.26 1015.72 1015.74 1015.66 1015.69 1015.63 1015.64 1015.78 1015.94 1015.87 1015.72 1015.69 1015.67 1015.38 1015.07 1014.63 1014.36 1014.08 1013.79 1013.58 1013.43 1013.22 1012.95 1012.41 1011.72 1011.15 1010.19 1009.09
1019.81 1019.61 1019.71 1019.81 1018.91 1017.20 1016.67 1016.96 1016.76 1015.68 1015.73 1016.22 1016.28 1016.19 1016.19 1016.13 1015.93 1015.82 1015.59 1015.38 1015.29 1015.39 1015.83 1016.09 1016.07 1015.82 1015.62 1015.72 1015.79 1015.38 1014.81 1014.51 1014.16 1013.99 1013.73 1013.45 1013.12 1012.73 1012.24 1011.81 1011.02 1010.50 1009.80 1008.70
1019.27 1018.44 1018.58 1019.00 1017.53 1016.16 1016.53 1016.02 1015.54 1015.40 1015.44 1015.35 1015.46 1015.53 1015.75 1015.83 1015.73 1015.63 1015.58 1015.68 1015.86 1016.26 1016.45 1016.60 1016.71 1016.37 1015.94 1016.05 1016.10 1015.48 1014.73 1014.60 1014.13 1013.71 1013.25 1012.95 1012.53 1012.03 1011.61 1010.97 1010.11 1009.55 1008.79 1007.78
1017.49 1017.75 1017.86 1017.84 1016.06 1015.76 1015.43 1015.21 1014.87 1014.65 1014.72 1014.85 1015.20 1015.46 1015.70 1015.83 1015.96 1016.06 1016.23 1016.51 1016.76 1017.08 1017.19 1017.22 1017.14 1016.80 1016.20 1016.08 1016.02 1015.93 1015.34 1014.95 1014.46 1013.64 1012.87 1012.36 1011.84 1011.12 1010.70 1010.09 1009.32 1008.44 1007.50 1006.52
1016.13 1016.91 1016.39 1016.13 1015.27 1014.96 1014.47 1014.32 1014.18 1014.23 1014.52 1014.90 1015.36 1015.86 1016.22 1016.62 1016.75 1017.02 1017.19 1017.47 1017.69 1017.91 1018.04 1018.17 1018.13 1017.67 1016.99 1016.72 1016.32 1016.23 1015.80 1015.44 1014.57 1013.77 1012.95 1012.18 1011.55 1010.73 1009.80 1009.13 1008.32 1007.44 1006.46 1005.79
1015.06 1014.80 1015.07 1014.25 1013.82 1013.81 1013.20 1013.59 1014.00 1014.38 1014.66 1015.42 1016.04 1016.58 1017.15 1017.63 1017.85 1018.06 1018.26 1018.52 1018.71 1018.71 1018.78 1018.71 1018.62 1018.25 1017.69 1017.33 1016.66 1016.17 1016.00 1015.59 1014.72 1013.59 1012.77 1011.94 1011.12 1010.16 1009.14 1008.00 1006.66 1006.30 1005.21 1004.09
Wind_Speed
4 8 12 18 19 20 13 17 21 21 18 16 22 21 19 21 23 25 23 18 14 11 11 11 11 13 12 10 9 10 11 11 11 11 12 12 13 11 12 12 17 18 16 19
4 11 17 9 6 11 16 18 21 20 15 5 17 22 26 22 23 21 18 14 11 8 7 12 14 14 14 14 12 8 8 10 11 10 10 11 10 11 11 11 13 16 17 18
17 10 4 8 12 16 16 15 20 21 17 14 13 13 3 7 13 12 11 8 2 5 12 15 16 18 17 17 15 12 9 6 8 10 7 7 5 7 8 9 10 11 14 15
9 4 6 6 13 12 17 12 15 14 8 10 8 12 10 13 14 7 5 3 11 14 16 18 19 21 22 20 17 16 13 7 3 7 7 10 9 9 8 9 10 10 14 15
4 4 5 7 9 5 7 3 2 2 7 10 4 9 3 2 5 4 8 11 15 17 18 17 17 16 15 15 20 19 15 12 8 3 6 6 10 8 6 5 9 12 12 16
16 1 4 5 4 5 1 5 3 1 5 9 8 7 3 3 1 3 11 14 15 15 14 15 15 17 22 22 19 17 17 15 10 6 4 6 9 9 7 7 6 7 9 11
4 6 3 3 5 3 5 5 9 8 7 11 5 5 7 11 5 9 12 13 13 13 16 19 22 21 22 22 20 17 18 17 14 10 7 6 7 9 10 10 8 8 7 8
10 18 8 9 9 10 10 9 8 7 12 17 6 15 10 9 12 14 16 15 16 15 14 16 17 16 17 17 18 18 18 19 18 15 12 9 7 6 8 9 8 8 8 9
13 18 2 4 1 4 7 9 5 7 10 11 15 24 11 7 8 11 12 12 12 11 13 16 16 16 16 16 16 16 16 16 17 17 15 14 11 9 9 11 9 8 9 8
4 11 3 1 0 5 6 3 9 5 8 17 14 18 14 10 6 5 8 10 11 12 13 12 12 12 12 14 13 15 15 15 14 14 14 13 14 12 10 9 10 10 10 10
4 7 10 3 8 17 7 7 8 6 6 6 6 12 3 8 7 6 7 8 10 11 11 10 10 10 11 11 13 14 15 16 17 17 16 14 13 13 12 10 9 9 10 10
12 5 11 25 18 5 4 14 15 12 9 10 13 15 7 10 8 7 6 5 6 8 9 9 9 10 11 12 12 12 13 14 14 15 14 14 14 14 14 14 14 12 10 9
3 4 5 5 7 3 5 8 14 12 6 20 19 5 7 9 7 6 6 4 3 5 8 9 8 9 10 11 12 12 12 13 14 13 13 14 15 15 15 15 15 14 12 12
1 5 15 17 20 15 10 9 5 4 6 7 8 10 12 15 10 2 3 3 2 2 5 7 9 10 11 10 11 12 11 10 11 12 12 12 14 15 15 14 13 12 12 13
4 7 13 17 20 20 19 19 23 21 19 13 19 21 25 23 11 2 2 1 2 2 4 5 6 8 10 12 11 11 11 11 12 12 10 11 10 11 11 12 12 14 13 11
2 12 16 20 16 13 13 18 23 23 23 25 26 27 10 2 1 2 4 6 7 5 6 7 7 7 8 9 10 11 12 12 11 11 10 10 9 9 11 11 11 11 11 12
7 9 12 21 18 20 17 21 23 25 25 23 23 12 5 1 6 7 7 10 10 8 9 10 10 10 9 10 9 10 11 11 11 11 11 10 9 10 11 12 11 12 12 12
13 14 9 14 8 23 13 7 11 15 12 1 6 4 3 3 8 9 10 13 13 10 9 11 11 13 11 11 11 11 10 9 9 9 9 9 11 12 13 13 12 13 12 13
18 15 11 15 18 22 24 21 20 15 17 8 9 3 4 5 7 13 10 14 14 13 11 10 11 12 13 14 13 10 11 11 11 12 11 10 10 11 14 14 15 13 13 14
8 14 11 4 9 14 8 1 2 2 6 8 2 4 8 6 10 12 13 9 12 15 12 10 12 11 13 15 13 11 13 13 14 13 13 11 10 12 14 15 16 15 14 15
2 3 12 13 15 12 4 5 4 6 4 7 6 11 10 10 12 15 14 13 14 13 14 12 12 13 14 13 10 13 15 16 14 13 13 12 13 13 14 15 14 15 16 17
6 6 4 1 4 11 4 6 7 2 9 10 11 13 13 13 14 13 14 14 15 15 12 12 13 13 14 15 12 15 18 16 14 13 13 14 14 13 13 16 16 16 15 16
8 10 6 9 8 4 6 8 11 13 15 15 15 14 12 13 14 14 13 13 10 10 11 11 11 14 17 14 12 16 17 16 16 15 16 16 17 16 15 16 16 14 15 14
14 13 12 11 19 20 21 20 20 18 16 15 13 12 12 13 11 10 9 8 10 9 10 10 11 14 17 15 15 15 17 17 17 19 20 18 17 18 16 13 13 13 13 13
12 5 10 14 20 19 21 21 21 21 16 11 7 4 5 4 7 8 9 10 10 11 11 10 11 14 17 17 17 16 18 17 18 19 19 18 16 17 16 15 14 13 15 16
14 19 12 15 19 16 21 18 16 12 13 3 2 3 1 3 6 8 8 9 10 12 13 12 13 14 16 16 18 17 16 16 17 18 15 14 14 14 14 15 15 24 31 35
Wind_Direction
168 204 216 235 230 249 285 271 274 277 286 291 287 294 294 285 277 279 280 292 289 311 332 333 343 339 327 315 295 268 251 235 219 211 211 216 224 221 225 216 209 203 196 191
168 235 236 267 279 256 260 270 276 278 277 280 285 295 291 283 274 271 285 293 303 329 31 26 17 11 4 358 348 325 278 255 223 217 214 211 214 225 233 227 227 215 204 196
241 268 242 217 248 258 254 262 269 280 307 276 295 275 256 293 272 297 276 269 336 35 30 21 18 24 21 13 357 353 337 278 238 241 230 216 245 215 214 227 232 227 222 207
254 308 236 223 250 254 274 280 270 285 301 290 5 295 300 273 284 323 40 89 93 55 32 33 27 22 18 10 7 16 4 353 268 223 232 234 242 235 219 215 213 217 222 221
261 189 163 206 235 186 272 9 300 283 283 304 258 264 308 239 248 173 22 74 54 34 35 35 35 28 24 20 28 17 21 27 6 308 237 239 252 263 267 244 206 209 208 217
265 15 221 223 164 200 328 275 240 208 284 263 310 235 13 264 227 92 91 73 50 39 35 37 42 39 32 28 24 23 24 27 20 1 299 265 272 274 280 268 239 212 206 206
204 215 222 209 220 159 184 263 298 277 231 267 68 289 283 282 7 25 81 68 49 45 36 32 29 25 28 29 28 28 25 24 19 17 350 315 292 281 272 268 252 241 224 218
286 283 198 176 229 264 197 205 215 257 269 287 303 263 251 235 87 66 56 47 40 37 39 35 32 34 30 26 27 29 29 24 22 18 8 345 329 296 285 270 261 258 243 233
299 273 98 237 131 226 156 217 282 267 260 276 269 269 252 237 70 63 60 60 54 42 40 37 28 23 23 21 24 23 26 26 20 13 19 14 2 327 299 289 276 264 255 256
8 298 262 261 156 212 230 318 254 221 255 246 247 257 252 166 124 87 66 40 31 33 31 30 27 26 20 14 18 19 18 22 20 12 18 16 11 358 328 305 288 278 272 251
202 202 273 287 228 263 228 230 227 270 258 261 252 241 306 146 125 103 48 35 24 22 22 20 20 21 17 15 11 13 15 11 8 10 9 8 11 6 359 337 316 294 282 262
260 258 248 271 283 284 283 265 257 247 241 225 249 253 95 113 128 117 101 60 33 26 11 5 9 13 10 9 8 9 6 9 6 359 359 3 1 3 5 357 343 328 303 280
37 266 275 270 233 141 221 261 256 274 298 250 250 237 116 124 127 122 128 125 98 358 4 360 360 6 8 3 0 0 359 358 353 357 356 355 357 358 356 352 347 338 317 297
79 245 248 261 274 307 273 258 288 267 263 312 272 293 285 275 288 115 150 119 119 17 350 360 355 353 357 355 350 351 350 353 351 347 351 354 351 350 346 342 342 335 326 301
226 256 265 271 268 272 261 262 265 264 271 268 285 283 282 290 319 299 357 219 243 293 324 350 341 334 340 339 340 342 339 342 348 345 345 344 338 337 333 329 330 327 329 321
261 270 279 270 271 259 263 263 263 266 268 263 264 267 299 65 4 277 318 320 274 293 341 340 329 314 306 313 318 324 327 325 330 329 326 331 333 330 329 326 322 322 318 320
268 277 271 268 276 285 264 246 260 266 265 268 272 295 58 17 306 303 300 306 291 287 325 333 329 313 300 302 302 294 301 309 313 316 320 320 321 319 321 321 317 320 320 315
247 252 257 266 265 254 269 278 269 276 291 68 116 130 181 305 307 290 281 284 282 268 300 317 314 310 305 298 294 291 286 287 289 292 293 299 315 317 322 317 312 316 314 309
233 253 260 256 257 280 283 279 270 249 275 166 145 187 253 279 287 286 271 280 276 266 279 296 299 299 300 299 299 288 280 285 284 290 294 302 311 310 312 310 310 308 305 303
222 230 245 221 256 265 305 52 47 120 263 183 180 279 285 267 280 296 315 289 283 268 270 285 301 303 300 303 308 292 290 292 287 291 290 294 297 301 301 301 302 301 296 291
255 213 238 247 261 270 237 140 146 232 297 190 248 269 269 247 263 289 293 283 275 273 278 294 300 297 300 303 304 290 296 292 294 291 286 286 289 293 291 292 292 296 294 292
251 251 207 185 242 267 122 118 224 254 291 288 284 280 278 269 278 279 282 288 287 291 292 302 304 302 305 312 315 301 294 304 304 296 286 284 287 288 287 285 284 284 283 282
250 220 250 215 251 275 196 249 242 289 281 286 290 291 280 275 275 281 290 297 297 298 308 314 306 304 303 311 309 300 302 312 310 301 290 288 289 285 281 279 279 279 277 272
256 251 245 264 255 259 264 264 269 276 276 280 281 279 282 275 288 291 298 303 307 313 311 318 317 308 303 312 311 309 311 311 305 297 294 295 291 290 285 279 275 271 270 270
242 187 231 251 262 272 263 262 264 270 278 271 266 253 262 287 291 302 306 310 311 314 317 319 312 301 300 309 308 311 308 306 299 296 297 296 293 289 288 279 276 271 268 266
234 236 237 248 261 258 267 271 276 272 262 215 219 230 141 333 309 317 306 311 313 314 317 311 306 300 301 304 301 300 302 301 298 296 295 292 292 287 283 283 280 269 274 274